Volver al catálogo

THORAD AGENA D DEB

ActivoSSO
NORAD 42538·DEBRIS·🇺🇸 United States

Lanzado Apr 8, 1970 desde Vandenberg Space Force Base

Loading…

Próximos Pases (próximas 24 horas)

TLE

ActualizadoSource: Space-Track

Época: Sep 14, 2026, 21:17 UTC

1 42538U 70025SU  26257.88739420  .00000036  00000-0  12214-3 0  9991
2 42538 100.1587 279.7381 0001275 114.1218 246.0051 13.54704027633313

Sigue THORAD AGENA D DEB en tiempo real con AllMySat

Download on the App Store